{"data":{"norad_id":45565,"intl_designator":"2020-025AL","name":"STARLINK-1357","alt_names":[],"object_type":"PAYLOAD","status":"ACTIVE","operator":null,"country":"US","launch_date":"2020-04-22","launch_site_code":"AFETR","launch_vehicle":null,"mission":null,"orbit_class":"UNKNOWN","rcs_meters":null,"size_class":null,"mass_kg":null,"dimensions":null,"purposes":["comms"],"wikipedia_slug":null,"has_3d_model":false,"image_url":null,"decayed_at":null,"tle_current":{"epoch":"2026-09-19T10:41:16.474848Z","epoch_age_seconds":109343,"freshness":"FRESH","line1":"1 45565U 20025AL  26262.44532957  .00107803  00000+0  45899-3 0  9997","line2":"2 45565  53.0361 159.4148 0006629 113.9184 246.2533 15.84428890356500","mean_motion":15.8442889,"eccentricity":0.0006629,"inclination_deg":53.0361,"raan_deg":159.4148,"arg_perigee_deg":113.9184,"mean_anomaly_deg":246.2533,"bstar":0.00045899,"rev_number":35650,"period_min":90.884482673123,"perigee_km":313.49450153333,"apogee_km":322.37215157228,"semimajor_km":6696.0703265528,"source":"CELESTRAK","updated_at":"2026-09-20T09:00:38.447263Z"}}}